| time (UTC) | temp F | wind direction | speed MPH | gust MPH | rain 1hr in | rain 24hr in | rain mn in | humidity % | barometer mb |
| 20260904145204 | 64 | 263 | 7.0 | 13.0 | 0.00 | 0.55 | 0.55 | 92 | 1008.2 |
| 20260904144704 | 64 | 268 | 13.0 | 20.0 | 0.00 | 0.55 | 0.55 | 93 | 1008.1 |
| 20260904144203 | 64 | 276 | 8.0 | 16.0 | 0.00 | 0.55 | 0.55 | 94 | 1008.0 |
| 20260904142704 | 64 | 278 | 10.0 | 16.0 | 0.01 | 0.55 | 0.55 | 95 | 1007.6 |
| 20260904141703 | 64 | 271 | 9.0 | 14.0 | 0.02 | 0.55 | 0.55 | 96 | 1007.4 |
| 20260904140703 | 64 | 269 | 8.0 | 13.0 | 0.06 | 0.55 | 0.55 | 97 | 1007.1 |
| 20260904140204 | 64 | 255 | 7.0 | 17.0 | 0.06 | 0.55 | 0.55 | 97 | 1007.4 |
| 20260904135703 | 64 | 259 | 10.0 | 16.0 | 0.06 | 0.55 | 0.55 | 97 | 1007.3 |
| 20260904135204 | 64 | 257 | 10.0 | 15.0 | 0.06 | 0.55 | 0.55 | 97 | 1007.2 |
| 20260904134703 | 64 | 270 | 9.0 | 17.0 | 0.06 | 0.55 | 0.55 | 97 | 1007.1 |
| 20260904134204 | 64 | 241 | 7.0 | 18.0 | 0.06 | 0.55 | 0.55 | 97 | 1007.0 |
| 20260904133703 | 64 | 167 | 5.0 | 15.0 | 0.06 | 0.54 | 0.54 | 97 | 1006.9 |
| 20260904132703 | 64 | 256 | 6.0 | 13.0 | 0.06 | 0.54 | 0.54 | 97 | 1006.8 |
| 20260904132205 | 64 | 277 | 6.0 | 13.0 | 0.06 | 0.54 | 0.54 | 97 | 1006.7 |
| 20260904131704 | 64 | 259 | 10.0 | 22.0 | 0.05 | 0.53 | 0.53 | 97 | 1006.6 |
| 20260904131203 | 64 | 257 | 9.0 | 22.0 | 0.01 | 0.49 | 0.49 | 97 | 1006.6 |
| 20260904124704 | 64 | 227 | 6.0 | 20.0 | 0.03 | 0.49 | 0.49 | 97 | 1006.4 |
| 20260904124204 | 64 | 246 | 7.0 | 16.0 | 0.04 | 0.49 | 0.49 | 97 | 1006.6 |
| 20260904123704 | 63 | 242 | 7.0 | 14.0 | 0.06 | 0.49 | 0.49 | 97 | 1006.8 |
| 20260904123205 | 63 | 251 | 9.0 | 16.0 | 0.06 | 0.49 | 0.49 | 97 | 1006.6 |
| 20260904122703 | 63 | 235 | 8.0 | 15.0 | 0.06 | 0.49 | 0.49 | 97 | 1006.2 |
| 20260904122204 | 63 | 228 | 6.0 | 12.0 | 0.06 | 0.48 | 0.48 | 97 | 1005.9 |
| 20260904121703 | 63 | 232 | 7.0 | 16.0 | 0.06 | 0.48 | 0.48 | 97 | 1006.3 |
| 20260904121204 | 63 | 233 | 7.0 | 15.0 | 0.06 | 0.48 | 0.48 | 96 | 1006.6 |
| 20260904120704 | 63 | 239 | 8.0 | 15.0 | 0.06 | 0.48 | 0.48 | 96 | 1006.2 |
| 20260904120204 | 63 | 251 | 9.0 | 20.0 | 0.06 | 0.48 | 0.48 | 96 | 1006.7 |
| 20260904115704 | 64 | 235 | 9.0 | 16.0 | 0.06 | 0.47 | 0.47 | 96 | 1006.1 |
| 20260904115205 | 64 | 234 | 7.0 | 15.0 | 0.06 | 0.46 | 0.46 | 96 | 1006.3 |
| 20260904114204 | 64 | 243 | 8.0 | 16.0 | 0.05 | 0.45 | 0.45 | 96 | 1006.3 |
| 20260904113704 | 64 | 242 | 9.0 | 16.0 | 0.03 | 0.43 | 0.43 | 96 | 1006.3 |
| 20260904113205 | 64 | 239 | 7.0 | 14.0 | 0.04 | 0.43 | 0.43 | 96 | 1006.1 |
| 20260904112704 | 64 | 242 | 5.0 | 13.0 | 0.03 | 0.43 | 0.43 | 96 | 1005.8 |
| 20260904112204 | 64 | 220 | 7.0 | 12.0 | 0.04 | 0.43 | 0.43 | 96 | 1005.8 |
| 20260904111704 | 64 | 229 | 5.0 | 15.0 | 0.04 | 0.43 | 0.43 | 96 | 1005.8 |
| 20260904111204 | 64 | 236 | 7.0 | 16.0 | 0.04 | 0.42 | 0.42 | 96 | 1005.9 |
| 20260904110204 | 65 | 225 | 11.0 | 17.0 | 0.04 | 0.42 | 0.42 | 96 | 1006.1 |
| 20260904105704 | 65 | 243 | 7.0 | 13.0 | 0.03 | 0.41 | 0.41 | 96 | 1006.1 |
| 20260904105204 | 65 | 234 | 7.0 | 20.0 | 0.03 | 0.41 | 0.41 | 96 | 1006.1 |
| 20260904104204 | 66 | 234 | 10.0 | 16.0 | 0.09 | 0.40 | 0.40 | 96 | 1006.2 |
| 20260904103704 | 66 | 239 | 10.0 | 16.0 | 0.20 | 0.40 | 0.40 | 96 | 1006.2 |
| 20260904103205 | 66 | 234 | 11.0 | 21.0 | 0.20 | 0.39 | 0.39 | 96 | 1006.0 |
| 20260904102704 | 67 | 242 | 10.0 | 23.0 | 0.20 | 0.39 | 0.39 | 96 | 1006.0 |
| 20260904102201 | 67 | 267 | 9.0 | 20.0 | 0.20 | 0.39 | 0.39 | 97 | 1005.9 |
| 20260904101200 | 68 | 264 | 10.0 | 20.0 | 0.20 | 0.39 | 0.38 | 97 | 1006.0 |
| 20260904100702 | 68 | 258 | 7.0 | 16.0 | 0.20 | 0.39 | 0.38 | 97 | 1005.7 |
| 20260904100201 | 68 | 254 | 9.0 | 17.0 | 0.20 | 0.39 | 0.38 | 97 | 1005.4 |
| 20260904095701 | 68 | 262 | 9.0 | 12.0 | 0.21 | 0.39 | 0.38 | 97 | 1005.5 |
| 20260904095201 | 68 | 254 | 7.0 | 17.0 | 0.21 | 0.39 | 0.38 | 96 | 1005.5 |
| 20260904094700 | 68 | 264 | 13.0 | 23.0 | 0.21 | 0.38 | 0.37 | 96 | 1005.6 |
| 20260904094201 | 68 | 251 | 14.0 | 26.0 | 0.17 | 0.32 | 0.31 | 96 | 1005.7 |
| 20260904093700 | 68 | 261 | 10.0 | 16.0 | 0.05 | 0.20 | 0.20 | 96 | 1005.4 |
| 20260904093201 | 68 | 234 | 10.0 | 20.0 | 0.06 | 0.20 | 0.20 | 96 | 1005.2 |
| 20260904092701 | 68 | 241 | 10.0 | 18.0 | 0.06 | 0.20 | 0.19 | 96 | 1005.2 |
| 20260904091201 | 68 | 235 | 12.0 | 24.0 | 0.06 | 0.19 | 0.18 | 96 | 1005.2 |
| 20260904090701 | 68 | 260 | 12.0 | 20.0 | 0.05 | 0.18 | 0.17 | 95 | 1005.3 |
| 20260904090201 | 68 | 251 | 10.0 | 20.0 | 0.05 | 0.18 | 0.17 | 95 | 1005.3 |
| 20260904085701 | 68 | 247 | 12.0 | 26.0 | 0.04 | 0.17 | 0.17 | 95 | 1005.2 |
| 20260904085200 | 68 | 249 | 10.0 | 26.0 | 0.04 | 0.17 | 0.17 | 95 | 1005.2 |
| 20260904084701 | 68 | 233 | 10.0 | 22.0 | 0.03 | 0.17 | 0.16 | 95 | 1005.1 |
| 20260904083701 | 68 | 238 | 12.0 | 23.0 | 0.02 | 0.16 | 0.15 | 94 | 1004.9 |
| 20260904083201 | 68 | 236 | 12.0 | 28.0 | 0.02 | 0.15 | 0.14 | 94 | 1005.0 |
| 20260904082701 | 68 | 244 | 13.0 | 21.0 | 0.01 | 0.14 | 0.13 | 94 | 1005.0 |
| 20260904082201 | 68 | 248 | 9.0 | 20.0 | 0.01 | 0.14 | 0.13 | 94 | 1005.0 |
| 20260904081701 | 68 | 240 | 12.0 | 26.0 | 0.00 | 0.13 | 0.13 | 94 | 1005.0 |
| 20260904081201 | 68 | 247 | 10.0 | 17.0 | 0.00 | 0.13 | 0.13 | 94 | 1004.8 |
| 20260904080701 | 68 | 231 | 7.0 | 20.0 | 0.01 | 0.13 | 0.13 | 94 | 1004.8 |
| 20260904075701 | 68 | 240 | 10.0 | 23.0 | 0.01 | 0.13 | 0.13 | 94 | 1005.2 |
| 20260904075201 | 68 | 234 | 9.0 | 20.0 | 0.01 | 0.13 | 0.13 | 94 | 1005.4 |
| 20260904074701 | 68 | 233 | 13.0 | 23.0 | 0.01 | 0.13 | 0.13 | 95 | 1005.4 |
| 20260904074201 | 68 | 240 | 8.0 | 16.0 | 0.01 | 0.13 | 0.13 | 95 | 1005.4 |
| 20260904073701 | 68 | 229 | 9.0 | 16.0 | 0.01 | 0.14 | 0.13 | 95 | 1005.5 |
| 20260904073201 | 67 | 241 | 9.0 | 20.0 | 0.01 | 0.14 | 0.13 | 95 | 1005.6 |
| 20260904072701 | 67 | 246 | 7.0 | 16.0 | 0.01 | 0.14 | 0.13 | 95 | 1005.6 |
| 20260904072201 | 67 | 226 | 9.0 | 18.0 | 0.01 | 0.14 | 0.13 | 96 | 1005.6 |
| 20260904071701 | 67 | 216 | 10.0 | 18.0 | 0.01 | 0.14 | 0.13 | 95 | 1005.7 |
| 20260904071202 | 67 | 216 | 7.0 | 17.0 | 0.01 | 0.15 | 0.13 | 96 | 1006.0 |
| 20260904070701 | 67 | 236 | 6.0 | 16.0 | 0.00 | 0.14 | 0.12 | 96 | 1006.0 |
| 20260904065702 | 67 | 232 | 6.0 | 13.0 | 0.00 | 0.14 | 0.12 | 96 | 1005.9 |
| 20260904063701 | 67 | 227 | 7.0 | 15.0 | 0.00 | 0.14 | 0.12 | 97 | 1006.1 |
| 20260904063201 | 67 | 217 | 5.0 | 9.0 | 0.00 | 0.14 | 0.12 | 97 | 1006.4 |
| 20260904062702 | 67 | 249 | 6.0 | 14.0 | 0.00 | 0.14 | 0.12 | 97 | 1006.4 |
| 20260904062201 | 67 | 241 | 5.0 | 13.0 | 0.00 | 0.14 | 0.12 | 97 | 1006.4 |
| 20260904061701 | 67 | 230 | 5.0 | 12.0 | 0.00 | 0.14 | 0.12 | 97 | 1006.5 |
| 20260904061202 | 67 | 234 | 4.0 | 15.0 | 0.00 | 0.14 | 0.12 | 97 | 1006.5 |
| 20260904055702 | 67 | 248 | 5.0 | 14.0 | 0.00 | 0.14 | 0.12 | 97 | 1006.9 |
| 20260904055201 | 67 | 228 | 4.0 | 14.0 | 0.00 | 0.14 | 0.12 | 97 | 1007.0 |
| 20260904054701 | 67 | 227 | 3.0 | 16.0 | 0.00 | 0.14 | 0.12 | 97 | 1007.1 |
| 20260904053701 | 67 | 222 | 5.0 | 12.0 | 0.01 | 0.14 | 0.12 | 97 | 1007.2 |
| 20260904053201 | 67 | 205 | 3.0 | 8.0 | 0.01 | 0.14 | 0.12 | 97 | 1007.3 |
| 20260904052701 | 67 | 212 | 6.0 | 12.0 | 0.01 | 0.14 | 0.12 | 97 | 1007.3 |
| 20260904052202 | 67 | 234 | 6.0 | 12.0 | 0.01 | 0.14 | 0.12 | 97 | 1007.3 |
| 20260904051702 | 67 | 239 | 3.0 | 8.0 | 0.02 | 0.14 | 0.12 | 97 | 1007.3 |
| 20260904051202 | 67 | 206 | 4.0 | 9.0 | 0.02 | 0.14 | 0.12 | 97 | 1007.3 |
| 20260904050701 | 67 | 215 | 5.0 | 12.0 | 0.02 | 0.14 | 0.12 | 97 | 1007.3 |
| 20260904050202 | 67 | 235 | 5.0 | 9.0 | 0.02 | 0.14 | 0.12 | 97 | 1007.5 |
| 20260904045701 | 67 | 239 | 5.0 | 9.0 | 0.02 | 0.14 | 0.12 | 97 | 1007.5 |
| 20260904045201 | 67 | 231 | 5.0 | 13.0 | 0.02 | 0.14 | 0.12 | 97 | 1007.6 |
| 20260904044701 | 67 | 225 | 8.0 | 17.0 | 0.02 | 0.14 | 0.12 | 97 | 1007.8 |
| 20260904044201 | 67 | 217 | 4.0 | 12.0 | 0.02 | 0.14 | 0.12 | 97 | 1007.7 |
| 20260904043701 | 67 | 240 | 5.0 | 12.0 | 0.02 | 0.13 | 0.11 | 97 | 1007.7 |
| 20260904043201 | 67 | 223 | 5.0 | 13.0 | 0.06 | 0.13 | 0.11 | 97 | 1007.7 |
| 20260904042702 | 67 | 221 | 7.0 | 20.0 | 0.06 | 0.13 | 0.11 | 97 | 1007.9 |
| 20260904042201 | 67 | 231 | 6.0 | 12.0 | 0.06 | 0.13 | 0.11 | 97 | 1008.0 |
| 20260904041202 | 67 | 229 | 5.0 | 12.0 | 0.05 | 0.13 | 0.10 | 97 | 1008.1 |
| 20260904040702 | 67 | 255 | 6.0 | 9.0 | 0.05 | 0.13 | 0.10 | 97 | 1008.1 |
| 20260904035702 | 67 | 222 | 5.0 | 9.0 | 0.05 | 0.13 | 0.10 | 96 | 1008.2 |
| 20260904035201 | 67 | 233 | 4.0 | 12.0 | 0.05 | 0.13 | 0.10 | 96 | 1008.1 |
| 20260904034701 | 67 | 190 | 3.0 | 8.0 | 0.05 | 0.13 | 0.10 | 96 | 1008.1 |
| 20260904034202 | 67 | 213 | 6.0 | 9.0 | 0.04 | 0.12 | 0.09 | 96 | 1008.3 |
| 20260904033702 | 67 | 221 | 4.0 | 8.0 | 0.03 | 0.11 | 0.09 | 96 | 1008.4 |
| 20260904033202 | 67 | 231 | 4.0 | 9.0 | 0.00 | 0.08 | 0.06 | 96 | 1008.4 |
| 20260904032702 | 67 | 224 | 4.0 | 10.0 | 0.00 | 0.08 | 0.06 | 96 | 1008.6 |
| 20260904032202 | 67 | 216 | 2.0 | 10.0 | 0.00 | 0.08 | 0.06 | 96 | 1008.7 |
| 20260904031703 | 67 | 224 | 5.0 | 8.0 | 0.00 | 0.08 | 0.06 | 96 | 1008.8 |
| 20260904031202 | 67 | 236 | 5.0 | 13.0 | 0.00 | 0.08 | 0.06 | 96 | 1009.0 |
| 20260904030202 | 67 | 207 | 4.0 | 16.0 | 0.00 | 0.08 | 0.06 | 96 | 1008.9 |
| 20260904025702 | 67 | 212 | 3.0 | 10.0 | 0.00 | 0.08 | 0.06 | 96 | 1008.9 |
| 20260904025202 | 67 | 216 | 2.0 | 9.0 | 0.00 | 0.08 | 0.06 | 96 | 1008.9 |
| 20260904024702 | 67 | 221 | 3.0 | 9.0 | 0.00 | 0.08 | 0.06 | 96 | 1009.1 |
| 20260904023703 | 67 | 204 | 6.0 | 12.0 | 0.00 | 0.08 | 0.06 | 96 | 1009.3 |
| 20260904023202 | 67 | 236 | 4.0 | 12.0 | 0.00 | 0.08 | 0.06 | 96 | 1009.3 |
| 20260904022703 | 67 | 207 | 6.0 | 13.0 | 0.00 | 0.08 | 0.06 | 96 | 1009.3 |
| 20260904022202 | 67 | 225 | 5.0 | 9.0 | 0.00 | 0.08 | 0.06 | 96 | 1009.5 |
| 20260904021702 | 67 | 229 | 8.0 | 18.0 | 0.01 | 0.08 | 0.06 | 96 | 1009.5 |
| 20260904021202 | 67 | 241 | 7.0 | 18.0 | 0.02 | 0.08 | 0.06 | 96 | 1009.7 |
| 20260904020702 | 67 | 229 | 6.0 | 12.0 | 0.02 | 0.08 | 0.06 | 96 | 1009.8 |
| 20260904020202 | 67 | 212 | 4.0 | 13.0 | 0.02 | 0.08 | 0.06 | 96 | 1009.6 |
| 20260904015702 | 67 | 236 | 3.0 | 8.0 | 0.02 | 0.08 | 0.06 | 96 | 1009.7 |
| 20260904015202 | 67 | 219 | 3.0 | 10.0 | 0.02 | 0.08 | 0.06 | 96 | 1009.7 |
| 20260904014703 | 67 | 247 | 6.0 | 13.0 | 0.02 | 0.08 | 0.06 | 96 | 1009.8 |
| 20260904014202 | 67 | 201 | 3.0 | 9.0 | 0.02 | 0.08 | 0.06 | 96 | 1009.9 |
| 20260904013703 | 67 | 231 | 4.0 | 8.0 | 0.02 | 0.08 | 0.06 | 96 | 1009.9 |
| 20260904013203 | 67 | 215 | 3.0 | 9.0 | 0.02 | 0.08 | 0.06 | 96 | 1010.0 |
| 20260904012703 | 67 | 231 | 5.0 | 9.0 | 0.02 | 0.08 | 0.06 | 96 | 1010.1 |
| 20260904012203 | 67 | 213 | 3.0 | 8.0 | 0.06 | 0.08 | 0.06 | 96 | 1010.2 |
| 20260904011202 | 67 | 237 | 2.0 | 7.0 | 0.04 | 0.06 | 0.04 | 95 | 1010.1 |
| 20260904010703 | 67 | 204 | 2.0 | 7.0 | 0.04 | 0.06 | 0.04 | 95 | 1010.2 |
| 20260904010203 | 67 | 210 | 3.0 | 10.0 | 0.04 | 0.06 | 0.04 | 95 | 1010.3 |
| 20260904005702 | 67 | 189 | 2.0 | 6.0 | 0.04 | 0.06 | 0.04 | 95 | 1010.4 |
| 20260904005203 | 67 | 210 | 3.0 | 6.0 | 0.04 | 0.06 | 0.04 | 95 | 1010.5 |
| 20260904004703 | 67 | 209 | 1.0 | 7.0 | 0.04 | 0.06 | 0.04 | 95 | 1010.5 |
| 20260904004203 | 67 | 192 | 2.0 | 10.0 | 0.04 | 0.06 | 0.04 | 95 | 1010.6 |
| 20260904003703 | 67 | 187 | 5.0 | 12.0 | 0.03 | 0.06 | 0.03 | 95 | 1010.7 |
| 20260904002703 | 67 | 212 | 2.0 | 8.0 | 0.03 | 0.06 | 0.03 | 95 | 1010.8 |
| 20260904002203 | 67 | 197 | 5.0 | 13.0 | 0.00 | 0.02 | 0.00 | 94 | 1010.8 |
| 20260904001703 | 67 | 183 | 5.0 | 10.0 | 0.00 | 0.02 | 0.00 | 94 | 1010.9 |
| 20260904000703 | 67 | 206 | 2.0 | 12.0 | 0.00 | 0.02 | 0.00 | 94 | 1011.2 |
| 20260904000204 | 67 | 195 | 2.0 | 7.0 | 0.00 | 0.02 | 0.00 | 94 | 1011.1 |
| 20260903235703 | 67 | 194 | 3.0 | 7.0 | 0.00 | 0.02 | 0.00 | 94 | 1011.1 |
| 20260903235203 | 67 | 200 | 3.0 | 9.0 | 0.00 | 0.02 | 0.00 | 94 | 1011.2 |
| 20260903234703 | 67 | 177 | 2.0 | 8.0 | 0.00 | 0.02 | 0.00 | 94 | 1011.2 |
| 20260903234203 | 67 | 173 | 2.0 | 6.0 | 0.00 | 0.02 | 0.00 | 94 | 1011.3 |
| 20260903233703 | 66 | 197 | 5.0 | 9.0 | 0.00 | 0.02 | 0.00 | 94 | 1011.4 |
| 20260903233203 | 66 | 183 | 3.0 | 7.0 | 0.00 | 0.02 | 0.00 | 94 | 1011.7 |
| 20260903232703 | 66 | 185 | 4.0 | 10.0 | 0.00 | 0.02 | 0.00 | 94 | 1011.7 |
| 20260903232203 | 66 | 206 | 3.0 | 6.0 | 0.00 | 0.02 | 0.00 | 94 | 1011.9 |
| 20260903231703 | 66 | 201 | 2.0 | 8.0 | 0.00 | 0.02 | 0.00 | 94 | 1012.1 |
| 20260903231203 | 66 | 190 | 2.0 | 7.0 | 0.00 | 0.02 | 0.00 | 94 | 1012.1 |
| 20260903230704 | 66 | 179 | 2.0 | 5.0 | 0.00 | 0.02 | 0.00 | 94 | 1012.2 |
| 20260903230203 | 66 | 184 | 1.0 | 3.0 | 0.00 | 0.02 | 0.00 | 93 | 1012.3 |
| 20260903225204 | 66 | 198 | 2.0 | 8.0 | 0.00 | 0.02 | 0.00 | 93 | 1012.2 |
| 20260903224204 | 66 | 212 | 2.0 | 5.0 | 0.00 | 0.02 | 0.00 | 93 | 1012.5 |
| 20260903223203 | 66 | 174 | 2.0 | 6.0 | 0.00 | 0.02 | 0.00 | 93 | 1012.4 |
| 20260903222703 | 66 | 224 | 1.0 | 7.0 | 0.00 | 0.02 | 0.00 | 93 | 1012.7 |
| 20260903222203 | 66 | 219 | 2.0 | 8.0 | 0.00 | 0.02 | 0.00 | 93 | 1012.6 |
| 20260903221703 | 66 | 225 | 2.0 | 5.0 | 0.00 | 0.02 | 0.00 | 93 | 1012.8 |
| 20260903221203 | 66 | 225 | 2.0 | 6.0 | 0.00 | 0.02 | 0.00 | 93 | 1012.8 |
| 20260903220703 | 66 | 237 | 3.0 | 8.0 | 0.00 | 0.02 | 0.00 | 93 | 1012.8 |
| 20260903220203 | 66 | 205 | 2.0 | 3.0 | 0.00 | 0.02 | 0.00 | 93 | 1012.9 |
| 20260903215704 | 66 | 235 | 3.0 | 6.0 | 0.00 | 0.02 | 0.02 | 93 | 1012.9 |
| 20260903215204 | 66 | 224 | 3.0 | 9.0 | 0.00 | 0.02 | 0.02 | 93 | 1012.9 |
| 20260903214704 | 66 | 235 | 2.0 | 7.0 | 0.00 | 0.02 | 0.02 | 93 | 1012.9 |
| 20260903214204 | 66 | 220 | 2.0 | 6.0 | 0.00 | 0.02 | 0.02 | 93 | 1013.1 |
| 20260903213203 | 66 | 203 | 2.0 | 7.0 | 0.00 | 0.02 | 0.02 | 92 | 1013.3 |
| 20260903212704 | 66 | 212 | 3.0 | 9.0 | 0.00 | 0.02 | 0.02 | 92 | 1013.4 |
| 20260903212203 | 66 | 216 | 2.0 | 7.0 | 0.00 | 0.02 | 0.02 | 92 | 1013.3 |
| 20260903211703 | 66 | 203 | 2.0 | 7.0 | 0.00 | 0.02 | 0.02 | 92 | 1013.5 |
| 20260903211204 | 66 | 216 | 1.0 | 6.0 | 0.00 | 0.02 | 0.02 | 92 | 1013.4 |
| 20260903210704 | 66 | 225 | 3.0 | 9.0 | 0.00 | 0.02 | 0.02 | 92 | 1013.6 |
| 20260903205704 | 65 | 214 | 1.0 | 3.0 | 0.00 | 0.02 | 0.02 | 91 | 1013.5 |
| 20260903204704 | 66 | 192 | 1.0 | 6.0 | 0.00 | 0.02 | 0.02 | 91 | 1013.4 |
| 20260903204203 | 66 | 185 | 0.0 | 3.0 | 0.00 | 0.02 | 0.02 | 91 | 1013.6 |
| 20260903203703 | 66 | 228 | 1.0 | 5.0 | 0.00 | 0.02 | 0.02 | 91 | 1013.7 |
| 20260903203203 | 66 | 243 | 0.0 | 3.0 | 0.00 | 0.02 | 0.02 | 91 | 1013.7 |
| 20260903202703 | 66 | 228 | 2.0 | 5.0 | 0.00 | 0.02 | 0.02 | 91 | 1013.7 |
| 20260903202203 | 66 | 234 | 1.0 | 5.0 | 0.00 | 0.02 | 0.02 | 91 | 1013.6 |
| 20260903201703 | 65 | 237 | 3.0 | 9.0 | 0.00 | 0.02 | 0.02 | 91 | 1013.7 |
| 20260903201204 | 65 | 236 | 4.0 | 7.0 | 0.00 | 0.02 | 0.02 | 90 | 1013.8 |
| 20260903200704 | 65 | 211 | 2.0 | 5.0 | 0.00 | 0.02 | 0.02 | 90 | 1013.6 |
| 20260903200203 | 65 | 211 | 2.0 | 7.0 | 0.00 | 0.02 | 0.02 | 89 | 1013.7 |
| 20260903195704 | 66 | 217 | 1.0 | 5.0 | 0.00 | 0.02 | 0.02 | 89 | 1013.8 |
| 20260903195203 | 66 | 217 | 1.0 | 2.0 | 0.00 | 0.02 | 0.02 | 89 | 1013.9 |
| 20260903194703 | 66 | 218 | 0.0 | 2.0 | 0.00 | 0.02 | 0.02 | 88 | 1014.0 |
| 20260903194204 | 66 | 201 | 0.0 | 2.0 | 0.00 | 0.02 | 0.02 | 88 | 1014.0 |
| 20260903193204 | 66 | 210 | 0.0 | 2.0 | 0.00 | 0.02 | 0.02 | 87 | 1014.1 |
| 20260903192704 | 66 | 234 | 2.0 | 3.0 | 0.00 | 0.02 | 0.02 | 87 | 1014.2 |
| 20260903192203 | 66 | 231 | 1.0 | 3.0 | 0.00 | 0.02 | 0.02 | 86 | 1014.2 |
| 20260903191703 | 67 | 229 | 2.0 | 3.0 | 0.00 | 0.02 | 0.02 | 86 | 1014.1 |
| 20260903191203 | 67 | 224 | 1.0 | 3.0 | 0.00 | 0.02 | 0.02 | 86 | 1013.8 |
| 20260903190704 | 67 | 230 | 2.0 | 7.0 | 0.00 | 0.02 | 0.02 | 85 | 1013.9 |
| 20260903190204 | 67 | 239 | 2.0 | 3.0 | 0.00 | 0.02 | 0.02 | 85 | 1013.9 |
| 20260903185204 | 67 | 245 | 2.0 | 3.0 | 0.00 | 0.02 | 0.02 | 85 | 1013.8 |
| 20260903184704 | 67 | 205 | 2.0 | 6.0 | 0.00 | 0.02 | 0.02 | 84 | 1013.8 |
| 20260903184204 | 68 | 207 | 3.0 | 5.0 | 0.00 | 0.02 | 0.02 | 84 | 1014.0 |
| 20260903183203 | 68 | 244 | 3.0 | 6.0 | 0.00 | 0.02 | 0.02 | 83 | 1014.1 |
| 20260903182704 | 68 | 255 | 3.0 | 8.0 | 0.00 | 0.02 | 0.02 | 83 | 1014.0 |
| 20260903182204 | 68 | 240 | 3.0 | 6.0 | 0.00 | 0.02 | 0.02 | 83 | 1014.2 |
| 20260903181704 | 68 | 238 | 4.0 | 8.0 | 0.00 | 0.02 | 0.02 | 82 | 1013.9 |
| 20260903181204 | 68 | 244 | 5.0 | 8.0 | 0.00 | 0.02 | 0.02 | 81 | 1013.7 |
| 20260903180704 | 68 | 238 | 3.0 | 7.0 | 0.00 | 0.02 | 0.02 | 81 | 1013.7 |
| 20260903175704 | 69 | 231 | 4.0 | 9.0 | 0.00 | 0.02 | 0.02 | 80 | 1013.9 |
| 20260903175204 | 69 | 248 | 5.0 | 9.0 | 0.00 | 0.02 | 0.02 | 80 | 1014.0 |
| 20260903174704 | 69 | 243 | 5.0 | 12.0 | 0.00 | 0.02 | 0.02 | 79 | 1014.0 |
| 20260903174206 | 69 | 256 | 4.0 | 12.0 | 0.00 | 0.02 | 0.02 | 79 | 1014.2 |
| 20260903173704 | 69 | 243 | 7.0 | 12.0 | 0.00 | 0.02 | 0.02 | 79 | 1014.0 |
| 20260903172703 | 69 | 282 | 7.0 | 12.0 | 0.00 | 0.02 | 0.02 | 78 | 1013.9 |
| 20260903172202 | 69 | 267 | 6.0 | 12.0 | 0.00 | 0.02 | 0.02 | 78 | 1014.0 |
| 20260903171702 | 69 | 258 | 6.0 | 12.0 | 0.00 | 0.02 | 0.02 | 78 | 1013.9 |
| 20260903171202 | 69 | 278 | 6.0 | 13.0 | 0.00 | 0.02 | 0.02 | 78 | 1014.0 |
| 20260903170703 | 70 | 266 | 6.0 | 14.0 | 0.00 | 0.02 | 0.02 | 77 | 1013.9 |
| 20260903170203 | 70 | 272 | 9.0 | 14.0 | 0.00 | 0.02 | 0.02 | 77 | 1013.8 |
| 20260903165702 | 70 | 273 | 10.0 | 17.0 | 0.00 | 0.02 | 0.02 | 77 | 1013.8 |
| 20260903165203 | 70 | 267 | 7.0 | 16.0 | 0.00 | 0.02 | 0.02 | 78 | 1013.8 |
| 20260903164702 | 70 | 258 | 7.0 | 15.0 | 0.00 | 0.02 | 0.02 | 78 | 1013.8 |
| 20260903163203 | 70 | 279 | 7.0 | 14.0 | 0.00 | 0.02 | 0.02 | 76 | 1013.8 |
| 20260903162704 | 70 | 267 | 8.0 | 15.0 | 0.00 | 0.02 | 0.02 | 76 | 1013.7 |
| 20260903161703 | 71 | 269 | 8.0 | 15.0 | 0.00 | 0.02 | 0.02 | 75 | 1013.8 |
| 20260903161202 | 71 | 268 | 12.0 | 16.0 | 0.00 | 0.02 | 0.02 | 74 | 1013.8 |
| 20260903160703 | 71 | 281 | 9.0 | 16.0 | 0.00 | 0.02 | 0.02 | 74 | 1013.8 |
| 20260903160203 | 71 | 263 | 11.0 | 20.0 | 0.00 | 0.02 | 0.02 | 75 | 1014.0 |
| 20260903155703 | 71 | 261 | 6.0 | 18.0 | 0.00 | 0.02 | 0.02 | 76 | 1013.8 |
| 20260903155203 | 71 | 254 | 9.0 | 15.0 | 0.00 | 0.02 | 0.02 | 77 | 1013.8 |
| 20260903154703 | 71 | 261 | 8.0 | 16.0 | 0.00 | 0.02 | 0.02 | 77 | 1013.9 |
| 20260903154203 | 71 | 246 | 7.0 | 15.0 | 0.00 | 0.02 | 0.02 | 77 | 1013.8 |
| 20260903153703 | 71 | 259 | 11.0 | 20.0 | 0.00 | 0.02 | 0.02 | 77 | 1013.9 |
| 20260903151703 | 70 | 270 | 9.0 | 17.0 | 0.00 | 0.02 | 0.02 | 78 | 1013.7 |
| 20260903151203 | 70 | 261 | 9.0 | 20.0 | 0.00 | 0.02 | 0.02 | 78 | 1013.7 |
| 20260903150203 | 71 | 260 | 10.0 | 21.0 | 0.00 | 0.02 | 0.02 | 77 | 1013.6 |
| 20260903145703 | 71 | 244 | 12.0 | 20.0 | 0.00 | 0.02 | 0.02 | 77 | 1013.5 |